User: anonymous   Login
Location: Columbia
(38.9520°N, 92.3340°W)
Time: 06:04:32
(UTC-06:00)
Language:

Cosmos 2100 Rocket - Orbit

View from above orbital plane
View from above orbital plane
View from above satellite
View from above satellite

Ground track
Ground track

The orbit data is extracted from the following two-line orbital elements,

1 20805U 90083B   14353.53610428  .00000148  00000-0  13628-3 0  8760
2 20805 082.9362 016.9899 0031638 059.0843 094.5234 13.75744651218189
Epoch (UTC): 19 December 2014 12:51:59
Eccentricity: 0.0031638
inclination: 82.9362°
perigee height: 956 km
apogee height: 1002 km
right ascension of ascending node: 16.9899°
argument of perigee: 59.0843°
revolutions per day: 13.75744651
mean anomaly at epoch: 94.5234°
orbit number at epoch: 21818

The dashed part of the orbit path shows where the satellite is in the earth's shadow,  

DLR